Regional Weather Roundup
Issued by NWS Kansas City/Pleasant Hill, MO

Home | Current Version | Previous Version | Graphics & Text | Print | Product List | Glossary Off
Versions: 1 2 3 4 5 6 7 8 9 10 11 12 13 14 15 16 17 18 19 20 21 22 23 24 25 26 27

000
ASUS43 KEAX 241310
RWREAX

WEATHER ROUNDUP FOR EASTERN KANSAS AND NORTHWEST MISSOURI
NATIONAL WEATHER SERVICE KANSAS CITY/PLEASANT HILL MO
800 AM CDT TUE MAY 24 2016

KSZ040-057-103>105-MOZ028-029-037-043-241400-
...KANSAS CITY METROPOLITAN AREA...

CITY           SKY/WX    TMP DP  RH WIND       PRES   REMARKS
K.C. INTL      CLOUDY    64  61  90 SE7       29.91R FOG
K.C. DOWNTOWN  LGT RAIN  65  62  90 E12       29.88F
LEES SUMMIT    LGT RAIN  63  61  93 E9        29.93F
OLATHE - IXD   CLOUDY    63  62  97 SE12      29.92S
OLATHE - OJC   CLOUDY    62  61  96 S8        29.92F FOG
LAWRENCE       CLOUDY    63  62  97 S7        29.92R

$$

MOZ001>008-011>017-020>025-030>033-038>040-044>046-053-054-241400-
...NORTHERN AND CENTRAL MISSOURI...

CITY           SKY/WX    TMP DP  RH WIND       PRES   REMARKS
ST. JOSEPH     PTSUNNY   64  60  87 VRB5      29.88F
MOSBY          TSTM      63  63 100 E8        29.90F
WARRENSBURG    CLOUDY    63  61  94 SW8       29.99R THUNDER
WHITEMAN AFB   NOT AVBL
CLINTON        TSTM      64  64 100 SE7G17    29.95S VSB 1/2
SEDALIA        LGT RAIN  66  63  90 S6        29.96S
WARSAW         NOT AVBL
CHILLICOTHE      N/A     66  63  90 S7        29.96R
KIRKSVILLE     CLOUDY    67  62  84 S9        29.95S

$$

MOZ041-047>049-056>058-063>065-088>090-097-241400-
...EASTERN AND SOUTHERN MISSOURI...

CITY           SKY/WX    TMP DP  RH WIND       PRES   REMARKS
ST. LOUIS INTL PTSUNNY   71  55  56 S7        30.01R
SPIRIT OF STL  CLOUDY    70  58  65 CALM      29.99R
COLUMBIA       CLOUDY    68  62  81 S9        29.97F
JEFFERSON CITY PTSUNNY   66  60  81 E7        29.96F
ROLLA          CLOUDY    68  60  75 S7        29.99R
OSAGE BEACH      N/A    N/A N/A N/A SE5       29.98
SPRINGFIELD    PTSUNNY   67  62  84 S10       29.97R
BRANSON        MOSUNNY   64  64 100 SE5       30.00R
JOPLIN         SUNNY     71  64  78 S15       29.93R
WEST PLAINS    CLOUDY    64  58  80 S7        30.04R

$$

IAZ060-094-KSZ022-034>040-054-083-096-NEZ052-066-093-241400-
...KANSAS...SOUTHEAST NEBRASKA AND IOWA...

CITY           SKY/WX    TMP DP  RH WIND       PRES   REMARKS
TOPEKA         CLOUDY    62  60  93 S6        29.92R
MANHATTAN      LGT RAIN  62  59  90 VRB5      29.97R
EMPORIA        TSTM      62  59  90 SE9       29.93R
CHANUTE        CLOUDY    68  64  87 CALM      29.92R
WICHITA        PTSUNNY   71  67  87 NE8       29.94R
OMAHA          CLOUDY    63  60  90 S3        29.90S
LINCOLN        CLOUDY    62  60  93 CALM      29.91R
FALLS CITY     CLOUDY    66  60  81 W10       29.90R
LAMONI         PTSUNNY   64  62  93 S10       29.93R
DES MOINES     CLOUDY    65  61  87 S5        29.92R

$$





USA.gov is the U.S. government's official web portal to all federal, state and local government web resources and services.